Flag for China Weather past 2 weeks in Chengdu, Sichuan, China

Now
82 °F

Thunderstorms. Passing clouds.


Feels Like: 88 °F
Forecast: 74 / 93 °F
Wind: 1 mph from North

Location: Chengdu Airport

Current Time: Jul 23, 2014 at 5:50:18 AM

Latest Report: Jul 23, 2014 at 12:00 AM


Visibility: N/A

Pressure: 29.71 "Hg

Humidity: 74%

Dew point: 73 °F

Location of ChengduLocation

Historic Weather in Chengdu — Graph

°F

Chengdu temperature yesterday

Maximum temperature yesterday: 99 °F (at 4:00 PM)
Minimum temperature yesterday: 75 °F (at 5:00 AM)
Average temperature yesterday: 86 °F

Past Weeks' High & Low Weather Summary

 TemperatureHumidityPressure
High99 °F (Jul 22, 4:00 PM)94% (Jul 9, 5:00 AM)29.86 "Hg (Jul 9, 5:00 AM)
Low72 °F (Jul 10, 5:00 AM)36% (Jul 13, 3:00 PM)29.47 "Hg (Jul 8, 6:00 PM)
Average80 °F73%29.71 "Hg
* Reported Midnight between Jul 7 and Jul 8 — Midnight between Jul 22 and Jul 23, Chengdu, Weather by CustomWeather, © 2014

Note: Actual official high and low records may vary slightly from our data, if they occured in-between our weather recording intervals... More about our weather records

Advertising

Chengdu weather history for previous 24 hours

 ConditionsComfort  
Time TempWeatherWind HumidityBarometerVisibility
12:00 AM
Jul 23
82 °FThunderstorms. Passing clouds.1 mph74%29.71 "HgN/A
11:00 PM
Jul 22
82 °FPassing clouds.3 mph70%29.71 "HgN/A
10:00 PM82 °FPassing clouds.1 mph74%29.68 "HgN/A
9:00 PM82 °FPassing clouds.1 mph70%29.65 "HgN/A
8:00 PM84 °FScattered clouds.1 mph62%29.62 "HgN/A
7:00 PM93 °FScattered clouds.3 mph44%29.62 "HgN/A
6:00 PM97 °FScattered clouds.3 mph42%29.59 "HgN/A
5:00 PM99 °FScattered clouds.6 mph42%29.62 "HgN/A
4:00 PM99 °FScattered clouds.1 mph37%29.62 "HgN/A
3:00 PM97 °FScattered clouds.3 mph42%29.65 "HgN/A
2:00 PM95 °FPartly sunny.3 mph47%29.68 "HgN/A
1:00 PM93 °FScattered clouds.3 mph49%29.71 "HgN/A
12:00 PM91 °FScattered clouds.1 mph52%29.71 "Hg5 mi
11:00 AM90 °FClear.1 mph55%29.74 "Hg4 mi
10:00 AM88 °FClear.1 mph62%29.74 "Hg4 mi
9:00 AM84 °FPassing clouds.1 mph66%29.74 "Hg4 mi
8:00 AM81 °FFog.1 mph74%29.71 "Hg2 mi
7:00 AM77 °FFog.1 mph83%29.71 "Hg2 mi
6:00 AM77 °FFog.1 mph89%29.71 "Hg2 mi
5:00 AM75 °FFog.1 mph94%29.68 "Hg2 mi
Weather by CustomWeather, © 2014

See weather overviewHow to use our weather pages